Temp
12 12 12 12 12 12 13 14 14 15 15 15 15 16 16 16 16 16 16 16 16 16 16 16 16 16 17 17 17 17 17 16 16 17 18 18 18 18 18 18 18 19 19 18 18 18 18 17 17 17 17 17 17 18 19 18 18 19 19 19 19 19 19 20 21 20 19 18 19 18 18 17 17 17 17 16 16 15 15 15 15 15 15 15 16
12 12 13 12 12 12 13 13 14 14 15 15 15 15 15 15 16 16 16 16 16 16 17 17 16 16 17 16 16 17 17 16 17 18 18 17 18 18 18 18 19 19 19 18 19 18 17 17 16 17 17 17 18 19 19 19 19 19 19 19 19 19 19 20 21 20 18 18 19 19 18 17 18 17 17 17 16 16 16 16 15 16 16 16 16
12 12 13 12 12 12 12 12 13 14 14 15 15 15 15 15 15 16 16 16 16 16 17 17 17 16 17 16 17 17 17 16 16 17 17 17 18 19 18 18 18 18 19 18 18 18 17 17 17 17 17 17 18 19 19 19 19 20 20 20 20 20 19 20 21 20 19 19 19 19 18 18 18 18 18 17 17 17 17 17 16 16 16 16 16
11 12 12 12 13 12 12 12 12 12 13 14 14 15 15 15 15 15 15 16 16 16 17 17 17 17 16 16 17 17 17 17 16 16 16 18 19 19 18 18 18 18 18 18 17 18 18 19 18 18 18 18 18 19 19 19 19 20 20 20 20 20 19 20 20 21 20 20 19 20 19 18 18 19 18 18 17 17 18 17 17 17 17 16 17
11 12 12 12 12 12 12 11 11 11 12 13 13 14 14 15 15 15 15 15 16 16 16 17 17 17 16 16 16 16 17 17 17 16 15 17 18 19 19 18 17 17 17 17 17 18 18 19 19 19 18 18 18 19 19 19 19 20 20 20 20 19 19 19 20 21 21 20 20 20 19 19 19 19 19 18 18 18 18 18 18 18 17 17 17
12 12 12 12 12 12 12 11 11 10 11 12 12 13 14 14 15 15 15 15 16 16 16 16 17 17 17 17 16 16 17 17 17 17 16 17 18 19 19 18 17 17 17 17 18 18 19 19 19 19 18 18 18 19 19 19 19 20 20 20 20 20 19 19 20 20 20 20 20 19 19 19 19 19 19 19 19 18 18 18 18 18 17 17 17
12 13 13 12 12 12 12 11 11 10 11 11 12 13 13 14 14 15 15 16 15 15 16 16 16 17 17 17 17 16 16 17 17 17 17 17 18 19 19 18 17 17 17 18 18 18 18 18 18 18 18 18 19 18 19 19 19 19 19 20 20 20 19 19 20 20 20 20 20 19 19 19 19 19 19 19 19 19 19 19 18 18 18 17 17
12 13 13 13 12 12 11 11 11 11 11 11 11 12 13 14 14 14 15 15 15 15 15 16 16 16 16 17 16 16 16 16 17 17 17 17 18 18 19 18 18 17 17 18 18 18 18 18 18 18 18 18 18 18 18 18 18 18 18 18 19 19 19 19 20 20 20 20 19 19 19 19 18 18 18 18 19 19 19 19 19 19 18 17 17
12 13 14 13 12 12 11 11 11 11 11 11 11 11 12 13 14 14 14 15 15 15 15 15 15 16 16 17 16 16 16 16 16 17 17 17 18 18 18 18 19 18 18 18 18 18 18 18 18 18 18 18 18 18 18 17 17 17 16 16 18 18 19 19 19 19 20 20 19 19 19 19 18 18 18 18 19 19 19 18 19 19 19 18 18
12 13 13 13 12 11 11 11 11 11 10 11 11 11 11 12 14 14 14 14 15 15 15 15 15 15 16 17 17 16 16 16 16 17 17 17 18 18 18 18 18 18 18 18 18 18 18 18 18 17 17 17 17 17 17 17 17 16 16 17 17 17 18 19 19 20 20 20 20 19 19 19 19 18 18 18 18 19 18 18 18 19 18 18 18
12 12 13 13 12 11 11 11 11 10 10 10 10 10 11 11 12 13 14 14 14 15 15 15 15 15 15 16 16 16 16 16 16 16 16 17 18 18 18 18 18 18 17 17 18 18 18 18 18 17 16 16 16 17 16 16 17 16 17 17 17 17 18 18 18 19 19 20 20 19 19 19 19 18 18 18 18 18 18 18 18 18 18 19 18
12 12 12 12 12 11 11 10 10 10 10 10 10 10 10 10 10 11 12 13 14 14 14 14 14 14 15 15 15 15 15 15 16 16 16 17 18 18 18 18 18 17 17 17 17 17 17 18 17 16 16 16 16 16 16 16 16 16 16 16 16 16 17 16 17 17 17 19 20 20 20 20 19 18 19 18 18 18 18 18 18 18 18 18 18
11 12 11 11 11 11 11 10 10 10 10 10 9 9 9 9 8 9 10 11 12 13 13 14 14 14 14 14 14 14 14 15 15 15 15 16 17 17 18 18 17 17 17 17 17 17 17 17 16 16 16 16 16 16 16 16 16 16 16 16 16 16 16 16 17 16 16 18 20 20 19 19 19 18 18 18 17 17 17 18 17 17 17 18 18
11 11 11 11 10 11 10 10 10 10 9 9 9 9 8 8 8 8 8 10 10 11 12 12 12 12 13 13 13 13 13 14 15 15 15 16 17 17 17 18 17 17 17 17 17 17 17 17 16 16 16 16 16 15 15 16 15 15 15 15 15 15 15 15 16 17 17 18 19 19 18 18 18 17 17 17 17 17 17 17 17 17 17 16 16
11 11 11 10 10 10 10 10 9 9 9 9 9 8 8 7 7 7 7 8 8 9 10 10 10 10 11 12 12 12 13 13 14 15 15 16 17 17 17 17 17 17 17 17 17 17 17 17 16 16 15 15 15 15 15 15 15 14 14 14 13 13 14 14 15 16 17 18 18 17 17 17 17 16 15 16 16 16 16 16 16 16 16 15 15
10 11 10 10 9 9 9 9 9 9 9 9 8 8 7 7 6 6 7 6 7 7 8 8 8 9 9 10 10 11 11 12 14 14 14 15 16 17 16 17 17 17 16 16 16 16 16 16 16 15 15 15 15 15 15 15 14 14 13 13 13 13 13 13 14 15 16 16 16 16 16 16 16 16 15 15 15 15 15 15 15 15 16 16 15
10 10 10 9 9 8 8 8 9 9 8 8 8 7 7 7 6 6 6 6 6 6 6 7 7 8 8 8 9 9 10 12 13 13 12 13 14 16 16 16 16 16 16 15 15 15 15 16 16 15 14 14 15 15 14 14 14 14 13 13 12 12 12 12 13 14 15 16 16 15 15 15 15 15 15 14 14 14 15 16 15 15 16 17 17
10 10 10 9 9 8 8 7 8 8 8 8 7 7 7 6 6 6 5 5 5 5 5 5 6 6 7 7 8 8 9 10 12 12 11 12 13 15 16 16 16 15 15 14 14 14 14 15 15 15 14 14 15 14 14 14 14 14 13 13 13 12 11 12 13 13 13 14 14 14 14 14 14 14 13 14 14 14 14 15 15 15 16 16 17
10 10 10 9 8 8 7 6 6 7 8 8 7 7 6 6 6 6 5 5 5 5 4 4 5 5 6 7 7 8 8 9 11 11 10 11 13 14 15 15 15 14 14 13 12 12 12 13 13 14 14 14 14 13 14 15 15 14 14 14 13 12 12 12 12 12 12 12 12 12 12 12 13 13 12 13 13 13 13 13 13 14 15 15 15
10 10 10 9 8 8 7 6 5 6 7 8 7 7 6 6 6 6 6 5 5 5 5 5 4 4 5 5 6 7 8 9 10 11 10 10 12 13 14 14 14 13 13 12 11 11 11 12 12 13 13 13 13 13 14 14 14 14 14 13 12 11 11 11 11 12 12 11 11 11 11 11 11 11 11 11 12 12 12 12 12 12 13 13 13
9 9 9 9 8 8 7 6 6 6 6 7 7 7 7 6 6 6 6 5 5 5 5 5 4 4 4 4 4 5 7 8 9 10 10 10 11 12 13 13 12 12 11 10 10 9 9 10 11 11 12 12 13 13 13 13 13 13 13 13 12 12 11 11 11 11 11 11 11 11 11 11 11 10 10 10 10 10 10 11 10 11 11 12 13
9 9 9 9 8 8 7 6 7 7 6 6 7 7 7 7 6 6 6 5 5 5 5 5 5 4 4 4 4 5 6 7 7 8 9 10 10 11 12 11 11 11 10 9 9 9 9 9 10 10 11 11 12 12 12 12 12 13 13 13 13 12 12 11 11 11 11 11 11 12 11 11 10 9 9 9 9 9 9 9 9 9 10 10 11
9 9 9 9 8 8 7 6 6 7 7 6 7 7 8 8 7 7 6 6 5 5 5 5 5 4 4 3 4 5 5 6 6 6 7 8 9 10 11 10 10 11 10 8 8 8 8 9 9 10 10 11 11 12 12 12 12 12 12 12 12 12 11 10 10 11 11 11 11 11 11 10 9 9 9 9 8 8 8 8 8 8 8 8 9
9 9 9 9 8 8 7 6 6 7 7 6 6 7 7 7 7 7 6 6 6 6 5 5 5 4 4 4 4 4 4 5 5 5 6 7 8 8 9 9 10 10 10 8 8 8 8 8 9 9 10 11 11 11 11 10 10 11 11 11 11 11 11 10 10 10 9 9 9 9 9 9 9 8 8 8 8 7 7 8 8 8 8 8 8
9 9 9 9 8 8 8 7 7 6 6 6 6 6 7 7 7 7 6 6 6 6 6 5 5 4 4 3 3 4 4 4 5 5 5 6 7 7 8 8 9 9 9 8 7 8 7 7 8 9 9 9 9 9 9 9 9 9 9 9 10 10 10 10 10 9 9 8 8 7 7 7 7 7 7 7 7 7 7 7 7 7 8 7 7
9 9 9 9 9 8 8 7 7 6 6 6 6 6 6 6 5 5 6 6 6 5 5 5 5 4 4 3 3 3 4 4 5 5 5 5 6 6 6 7 7 7 7 7 7 7 7 7 7 8 8 8 8 8 8 8 8 8 8 8 9 9 9 9 9 8 8 7 7 7 7 7 7 7 7 7 7 8 8 8 8 8 8 8 8
9 9 9 9 9 8 8 8 8 7 6 6 6 6 6 5 4 4 4 5 5 5 5 5 5 4 4 4 3 3 3 4 4 4 5 5 5 6 6 6 6 6 6 6 6 7 6 6 7 7 7 7 7 7 7 7 7 7 7 7 8 8 8 8 8 7 7 6 6 6 6 6 7 7 7 7 8 8 8 8 9 9 9 9 10
9 9 8 8 8 8 8 8 8 8 7 6 5 5 6 6 5 4 3 3 4 5 5 4 4 4 3 3 3 3 3 3 4 4 4 4 5 5 6 6 6 6 6 6 6 6 6 6 6 7 7 6 6 6 6 7 7 7 7 7 7 7 7 7 7 7 7 7 6 6 6 6 7 7 7 7 7 7 8 8 9 9 9 9 10
9 9 8 8 8 8 8 8 8 8 8 6 5 5 5 5 5 4 3 3 4 4 4 4 4 3 3 2 2 2 2 2 3 4 4 4 4 4 5 5 5 5 5 5 5 6 6 6 6 6 6 6 6 6 6 6 6 6 7 7 7 7 7 7 7 6 6 6 6 6 6 6 6 7 7 7 7 7 7 8 8 9 9 9 10
9 9 9 8 8 8 8 8 8 8 8 8 7 6 5 5 5 4 3 3 4 4 3 3 3 3 3 2 2 2 2 2 3 4 4 4 4 4 4 4 4 4 4 5 5 5 5 5 6 6 6 6 6 6 6 6 6 6 6 6 6 6 6 6 6 6 5 5 5 5 6 6 6 7 7 7 7 6 7 7 8 8 9 9 10
9 9 9 8 8 8 8 8 8 8 8 8 8 7 6 5 5 5 4 4 4 4 3 3 3 3 3 3 2 2 2 3 3 3 4 4 4 4 4 4 4 4 4 4 4 4 5 5 5 4 5 5 5 5 5 5 6 5 5 5 5 6 6 5 5 5 5 5 5 5 5 6 6 6 6 6 7 7 7 7 8 9 9 10 9
9 9 9 9 8 8 8 8 8 8 8 8 8 8 7 7 6 5 5 5 5 4 4 3 3 3 3 3 3 2 3 3 3 3 3 3 4 4 4 4 4 4 4 5 5 4 5 5 4 4 5 5 5 5 5 5 5 5 5 5 5 5 4 4 4 4 4 4 5 5 5 5 5 6 6 6 7 7 7 7 8 8 8 8 8
9 9 9 9 9 9 9 8 8 8 8 8 7 7 7 7 7 6 6 6 5 5 4 4 3 3 3 3 3 3 2 3 3 3 3 3 3 4 4 4 4 4 4 5 5 4 4 5 4 4 4 5 4 4 4 4 4 4 4 4 4 4 4 4 4 4 4 4 5 5 5 5 5 6 6 6 6 7 7 7 7 7 8 8 8
8 8 8 9 9 9 9 9 9 8 8 8 7 7 7 7 7 7 7 6 6 6 5 4 4 3 3 3 3 3 3 3 3 3 3 3 3 4 4 4 4 4 4 4 4 4 4 4 4 4 4 4 4 4 4 4 3 3 3 3 3 3 3 3 4 4 4 4 5 5 5 5 6 6 6 6 7 7 7 7 7 7 7 8 8
9 8 8 8 9 9 9 9 9 8 8 8 8 7 7 6 7 7 7 7 7 7 6 6 4 4 3 3 2 2 2 2 2 3 3 3 3 3 4 4 4 4 4 4 4 3 3 3 3 3 3 3 3 3 3 3 3 3 3 3 3 3 3 4 4 4 4 5 5 5 5 5 6 6 6 6 7 7 7 7 6 7 7 7 7
9 9 9 8 9 9 9 9 8 8 8 8 8 7 7 7 7 7 7 7 7 7 7 6 5 5 4 3 2 2 2 2 2 2 3 3 3 3 3 3 3 3 3 3 3 3 3 3 3 3 3 3 3 3 3 3 3 3 3 3 3 4 4 4 4 4 4 4 4 4 5 5 6 6 6 6 6 6 6 6 6 6 6 6 6
9 9 8 8 8 9 9 9 8 8 8 8 8 8 7 7 7 7 7 7 6 6 7 7 6 6 5 4 3 3 3 3 2 3 3 3 3 3 3 3 3 2 2 3 3 3 3 3 2 2 2 3 3 3 3 3 3 3 4 4 4 4 4 4 4 4 4 4 4 4 5 5 5 6 6 6 6 6 5 5 5 5 5 5 6
8 8 8 8 8 9 9 9 8 8 8 8 8 8 7 7 7 7 7 7 6 6 7 6 6 6 6 5 4 4 4 4 3 3 3 3 3 3 4 4 4 3 3 3 3 3 3 3 3 3 3 3 3 3 3 3 3 3 4 4 3 3 3 3 4 4 5 5 5 5 5 5 5 6 6 6 6 6 5 5 5 5 5 5 6
8 8 7 7 8 8 9 9 9 8 8 9 8 8 7 7 7 7 7 7 6 6 6 6 6 6 5 4 4 4 5 4 4 3 3 3 3 4 4 4 4 4 4 4 4 4 3 3 3 3 3 3 3 3 3 3 3 3 3 3 3 4 4 4 4 4 5 5 5 5 5 5 6 6 6 5 5 5 5 5 5 5 6 5 5
9 8 8 7 8 8 9 9 9 8 8 8 8 8 8 7 7 7 7 7 7 6 6 6 6 5 4 4 3 4 5 5 4 3 2 2 2 3 3 4 4 4 4 4 4 4 3 3 3 3 3 3 4 4 4 3 3 3 4 4 4 4 4 5 5 5 5 5 5 5 5 5 5 5 5 5 5 5 5 5 5 5 5 5 5
9 9 8 8 8 8 9 9 8 8 8 8 8 8 8 7 7 7 7 7 7 6 6 6 6 5 4 4 3 4 4 5 4 3 3 2 2 2 2 3 3 3 3 3 3 3 3 3 3 3 3 3 3 3 3 3 4 4 4 4 4 4 4 4 4 5 5 5 5 5 5 5 5 5 5 5 5 5 5 5 5 5 5 5 5
8 8 8 8 8 8 8 8 8 8 8 8 8 8 8 8 7 7 7 7 7 6 6 6 6 5 4 4 4 4 5 5 4 4 3 2 2 2 2 2 2 3 3 3 3 3 3 3 3 3 3 3 4 4 4 4 4 4 4 4 4 4 4 4 4 4 4 4 4 4 4 4 4 5 4 5 5 5 5 5 5 5 5 5 5
8 8 8 8 8 8 8 8 8 8 8 8 7 7 7 8 8 7 7 7 7 7 6 6 6 6 5 5 4 5 5 5 5 4 4 3 2 2 2 2 2 2 2 2 3 3 3 3 3 3 3 3 3 3 4 4 4 4 4 4 4 4 4 4 4 4 4 4 4 3 4 4 4 4 4 4 5 5 5 5 5 5 5 5 5
8 8 8 8 8 8 8 8 8 8 7 7 7 7 7 7 8 8 7 7 7 7 7 7 6 6 6 5 5 5 5 5 5 4 4 4 3 2 2 1 1 2 2 2 2 2 3 3 2 2 2 2 2 2 3 3 3 4 4 4 4 4 4 4 4 4 4 4 4 4 4 4 4 5 4 4 4 4 4 4 4 5 5 5 5
8 8 8 8 8 8 8 7 7 7 7 7 7 7 7 7 7 7 7 7 7 7 7 7 7 6 6 6 6 6 6 5 5 5 4 4 4 3 2 2 1 1 1 1 2 2 2 2 2 2 2 2 2 2 2 2 2 3 3 3 3 3 3 3 3 3 3 3 4 4 4 4 4 4 4 4 4 4 4 4 4 4 4 4 4
8 8 8 8 8 7 7 7 7 7 8 7 7 7 7 7 7 7 7 7 7 7 7 7 7 7 7 6 6 6 6 6 5 5 5 4 4 3 3 2 2 1 1 1 1 1 1 2 2 2 1 1 1 2 2 2 2 2 2 2 2 2 2 2 2 2 2 3 3 4 4 4 4 4 3 3 4 4 4 4 4 4 4 4 4
7 7 7 7 7 7 7 7 7 7 7 7 7 7 7 7 7 7 7 7 7 7 7 7 7 7 7 7 6 6 6 6 6 5 5 4 4 3 3 2 2 2 1 1 1 1 1 1 1 1 1 1 1 1 2 2 2 2 2 2 2 2 2 1 2 2 2 2 2 2 3 3 3 3 3 3 3 4 3 3 3 3 3 3 4
7 7 7 7 7 7 7 7 7 7 7 7 7 7 7 7 7 7 7 7 7 7 7 7 7 7 7 7 7 6 6 6 5 5 5 5 4 4 3 2 2 2 2 1 1 1 1 1 1 1 1 1 1 1 1 2 2 2 2 1 1 1 1 1 1 1 1 1 1 1 2 2 2 3 2 2 3 3 3 3 3 3 3 3 4
7 7 7 7 7 7 7 7 7 7 7 7 7 7 7 7 7 7 6 6 6 6 7 7 7 7 7 7 7 6 6 6 5 5 5 5 5 4 3 2 2 2 2 2 2 1 1 1 1 1 1 1 1 1 1 1 1 1 1 1 1 1 1 1 1 1 1 1 1 1 2 2 2 2 2 2 2 2 2 3 3 3 3 3 3
7 7 7 7 7 7 7 7 7 7 7 7 7 7 7 7 7 7 6 6 6 6 6 6 6 7 7 7 7 6 6 6 6 6 5 5 5 4 3 3 2 2 2 2 2 2 1 1 1 1 1 1 1 1 1 1 1 1 1 1 1 1 1 1 1 1 1 1 1 1 1 1 1 1 2 2 1 1 2 2 2 3 3 3 3
7 7 7 7 7 7 7 7 7 7 7 7 7 7 7 7 7 7 6 6 6 6 6 6 6 6 6 6 7 6 6 6 6 6 5 5 5 4 4 3 2 2 2 2 2 2 2 1 1 1 1 1 0 1 1 1 1 1 1 1 1 1 1 1 1 1 1 1 1 1 1 1 1 1 1 2 2 2 2 1 2 2 3 3 3
Height
813 811 809 808 806 804 803 801 800 798 797 797 797 797 797 797 796 796 795 794 794 794 794 792 792 793 794 795 796 795 795 796 797 798 798 799 801 803 806 808 810 812 814 816 818 818 819 821 823 824 825 827 828 829 830 831 832 832 833 834 835 837 839 839 838 840 845 847 848 850 852 853 855 856 858 859 859 861 863 864 864 864 867 867 867
814 812 810 809 807 804 803 801 799 798 797 796 796 796 796 796 796 795 794 793 793 792 793 792 792 793 793 795 796 795 795 796 797 797 796 797 799 801 804 807 809 811 812 814 815 816 817 819 821 822 824 825 826 826 827 828 829 830 831 832 833 835 837 837 837 839 844 846 847 849 851 852 854 855 857 858 859 860 862 863 863 864 866 867 867
815 813 811 809 807 805 803 801 800 799 797 797 796 796 796 795 795 794 793 792 791 791 791 791 791 791 791 792 793 793 794 797 799 799 797 796 798 800 802 805 807 809 810 812 813 815 816 817 819 820 822 824 824 824 825 826 827 828 829 830 831 833 835 836 836 838 841 844 846 847 849 851 852 853 855 857 858 859 860 862 863 864 864 865 866
816 814 812 810 808 806 804 801 800 799 798 797 796 795 795 795 794 793 792 791 791 790 790 790 790 790 790 790 791 792 793 795 798 800 798 796 796 798 801 804 806 807 809 810 811 813 814 815 817 818 820 821 822 823 823 824 825 825 826 828 830 831 833 835 835 837 839 842 844 845 847 850 851 852 854 856 857 858 859 860 861 862 863 864 865
816 814 812 810 808 806 804 802 800 799 798 796 795 794 794 794 793 793 792 790 790 789 789 789 788 788 788 788 789 790 791 791 793 796 798 797 796 798 800 802 804 806 807 808 810 811 813 814 815 816 818 819 820 821 822 822 823 824 824 826 828 830 832 834 834 835 837 840 842 844 846 848 850 851 852 854 855 857 858 859 860 861 862 863 864
817 815 813 810 808 806 804 802 800 799 797 795 794 794 793 793 792 791 790 789 788 787 787 787 787 786 786 786 787 788 788 789 789 792 796 797 796 797 799 801 803 804 805 806 808 810 811 812 814 815 816 817 818 819 820 821 822 822 823 824 826 829 831 833 834 835 836 838 841 843 845 846 848 850 851 852 853 854 856 857 858 859 860 861 862
818 816 813 811 809 807 805 803 801 799 797 795 794 793 792 792 790 789 789 787 786 785 785 786 785 785 785 785 785 786 787 788 789 790 793 796 796 797 798 799 801 802 804 805 807 809 810 811 812 813 814 815 816 817 818 819 820 821 822 823 824 827 830 831 833 834 836 837 840 842 843 845 846 848 850 851 852 852 853 855 856 857 859 860 860
820 817 815 812 810 807 805 803 801 800 797 795 794 793 791 790 789 788 787 786 785 784 784 784 784 784 784 784 785 785 786 787 788 789 791 794 796 796 797 798 799 801 803 804 806 807 808 810 810 811 812 813 814 815 816 817 819 820 822 822 823 826 829 830 831 833 834 836 838 840 841 843 845 847 848 849 850 851 851 852 853 854 856 857 858
821 819 816 814 812 809 807 804 802 800 797 795 793 792 790 789 787 786 785 784 783 783 783 783 783 784 784 784 784 784 785 786 788 789 790 792 794 796 796 797 798 799 801 803 804 806 807 808 808 809 810 810 811 812 814 815 818 820 821 822 824 826 827 829 830 831 832 834 836 837 839 841 843 845 846 847 848 849 849 851 852 852 854 855 856
823 821 818 816 814 811 809 805 803 800 798 796 793 791 790 788 786 785 784 783 782 782 782 782 782 783 783 783 783 783 784 786 787 789 789 790 792 794 795 796 796 798 799 801 802 804 805 806 806 806 808 809 810 811 813 814 816 818 820 821 823 825 826 827 828 829 829 831 833 834 836 838 840 842 843 844 846 847 848 850 850 851 852 853 854
824 822 820 818 815 813 810 807 804 802 799 797 794 792 790 788 786 784 783 782 781 780 780 780 780 780 781 781 782 783 784 785 786 788 788 789 791 792 793 794 795 796 797 799 801 802 803 804 804 805 807 809 810 812 813 814 815 817 818 819 821 823 824 825 825 826 826 827 830 832 833 835 837 839 841 843 844 845 847 848 849 850 851 851 852
826 823 821 819 817 815 812 809 806 803 800 798 796 793 791 788 786 784 782 781 780 779 779 778 778 778 778 779 781 783 784 784 785 787 788 788 789 791 792 793 793 795 795 797 799 801 802 803 804 805 806 807 809 811 812 813 814 816 817 818 820 821 823 824 825 825 826 826 827 829 831 832 834 837 839 841 842 844 845 847 847 848 849 849 850
827 825 823 821 818 816 813 810 808 805 802 800 797 795 792 789 786 784 782 781 779 778 778 777 777 777 777 777 779 781 783 784 784 786 787 788 788 789 791 791 792 793 794 795 798 799 800 801 803 804 804 806 808 810 810 811 813 815 816 817 819 820 822 823 824 825 827 826 826 827 829 831 833 835 837 839 840 842 844 845 846 847 848 848 848
828 826 824 822 820 818 815 813 810 807 804 802 799 797 794 791 789 786 784 782 780 779 778 777 776 776 776 777 777 778 780 782 782 784 786 787 787 788 789 790 791 792 793 795 796 798 799 800 802 803 803 804 807 808 809 810 811 814 815 817 818 819 820 822 823 825 827 826 826 827 829 831 832 834 836 838 839 841 843 844 845 846 847 848 849
830 827 825 823 821 819 817 814 812 809 807 804 802 800 797 795 792 790 787 785 783 781 780 778 778 777 778 778 778 777 778 779 780 782 784 786 786 787 788 789 790 792 793 795 796 797 798 799 800 801 802 803 805 806 808 809 811 812 814 816 816 816 818 821 822 824 825 825 826 827 829 830 832 833 835 837 839 841 842 843 844 846 847 848 849
831 829 827 825 823 821 818 816 814 812 809 807 805 802 800 797 795 793 791 788 786 784 782 780 779 779 778 778 778 777 777 778 779 781 783 784 785 786 787 788 789 791 793 794 795 796 797 798 799 800 801 802 804 805 807 808 809 811 813 814 815 816 819 821 822 822 823 823 824 826 827 829 831 833 835 837 839 840 842 843 844 845 846 847 847
833 831 829 828 825 823 821 819 816 814 812 809 807 805 802 800 798 796 794 791 789 787 785 783 782 780 779 779 778 778 777 777 778 780 782 784 785 785 785 786 789 791 792 793 795 795 796 797 798 800 801 801 802 804 806 807 808 810 812 814 816 818 821 822 822 823 823 823 824 826 828 830 831 833 835 837 838 840 842 843 843 844 845 844 844
835 833 831 830 828 826 823 821 819 817 814 812 810 807 805 803 801 799 797 795 793 791 789 787 785 783 781 780 780 780 779 777 778 781 783 784 785 784 784 786 788 790 791 792 794 794 795 796 798 799 800 800 801 804 806 807 808 809 811 814 817 820 821 822 823 824 824 824 825 826 829 831 833 834 836 837 839 840 841 842 843 844 843 842 842
837 835 834 832 830 828 825 823 821 819 817 815 813 811 808 806 805 802 800 799 797 795 793 791 789 787 785 782 781 782 780 777 778 781 784 785 784 783 784 786 788 789 790 792 793 794 795 796 797 799 799 801 802 804 807 808 808 809 811 814 817 820 822 823 823 824 826 827 828 828 830 832 834 836 837 838 840 841 842 842 843 844 843 843 844
839 838 836 834 832 830 828 825 823 821 820 818 816 814 812 810 808 806 804 803 802 800 798 796 794 791 788 786 785 784 782 779 779 781 784 786 785 782 783 787 790 790 791 793 794 795 795 796 798 799 800 802 804 805 807 808 809 811 813 815 818 820 822 824 825 825 827 829 830 830 832 834 836 837 839 840 841 841 842 843 844 844 845 845 846
841 840 838 836 835 833 830 828 825 823 822 821 820 818 816 814 812 810 809 807 805 804 802 800 798 796 793 791 790 787 783 781 781 782 785 787 786 784 784 788 791 791 791 793 794 795 796 797 799 801 803 804 805 806 808 809 810 812 813 815 817 820 822 824 826 827 828 830 831 832 834 836 837 839 840 841 842 843 843 844 844 845 845 846 846
844 842 840 838 837 835 833 830 828 826 824 823 823 821 820 819 817 815 813 811 809 808 807 805 804 801 798 796 794 789 786 786 786 786 787 787 786 786 787 789 791 791 792 794 796 797 798 799 800 803 805 806 806 807 808 810 812 813 814 816 817 820 822 824 826 828 830 831 833 834 835 837 839 840 842 843 843 844 845 845 845 845 846 846 846
846 844 842 841 839 838 836 834 831 829 827 826 826 825 823 822 820 819 817 815 813 812 810 809 808 805 803 800 797 793 792 792 792 790 790 789 788 788 789 791 792 792 794 796 798 800 801 802 803 805 807 808 808 808 809 811 813 815 816 818 820 822 823 826 828 830 831 833 834 835 837 838 840 841 842 843 844 845 845 845 846 846 846 846 847
848 846 845 843 842 840 839 837 835 833 830 829 828 827 826 825 823 822 820 818 816 815 813 813 811 809 806 804 801 799 798 798 797 797 795 793 792 791 791 792 794 795 796 799 801 802 804 805 805 807 808 809 810 811 811 813 815 817 818 820 823 824 825 827 829 831 833 834 836 837 839 840 841 842 843 844 844 845 845 845 846 847 847 848 848
849 848 847 846 844 843 842 840 839 837 834 832 831 830 829 828 826 824 822 821 820 818 817 816 815 813 811 809 807 806 804 803 802 802 801 797 795 795 796 796 798 799 799 801 803 805 807 808 808 808 810 811 812 813 813 815 817 819 820 822 825 827 828 830 831 833 834 836 838 839 840 841 842 843 843 844 844 845 846 846 847 848 849 850 850
852 850 849 848 847 845 844 843 841 840 838 836 835 834 832 830 829 827 825 824 823 822 820 819 818 817 816 815 813 811 809 807 806 805 804 802 800 801 802 802 803 803 803 804 806 807 810 812 811 810 813 814 814 815 816 817 819 821 822 824 826 828 830 832 834 835 837 838 839 841 841 842 843 844 844 845 846 846 847 847 848 849 849 850 850
854 852 851 850 848 847 846 845 844 842 841 839 838 836 835 834 832 830 828 827 826 825 824 823 821 820 819 818 817 815 813 811 810 809 808 807 806 806 807 807 807 807 806 808 809 810 813 815 814 813 815 817 817 817 818 820 821 823 825 826 828 830 832 834 835 837 838 839 840 841 843 844 845 845 845 846 847 848 848 848 848 849 849 850 850
855 854 853 852 851 850 848 847 846 845 844 843 841 839 838 837 836 835 834 832 830 829 827 826 825 824 823 821 820 819 817 815 814 813 812 811 811 811 811 811 810 810 810 811 812 813 815 818 818 817 818 820 820 820 821 822 824 826 828 829 830 832 833 835 836 837 838 839 840 842 843 845 845 846 846 847 848 848 848 848 848 849 849 849 849
856 855 855 854 853 852 851 849 848 847 846 846 845 844 842 841 840 839 838 836 835 833 831 830 829 828 826 825 823 822 821 819 818 817 817 816 815 814 814 814 813 813 814 815 816 816 818 820 821 820 820 822 823 823 824 826 827 829 830 831 832 834 835 836 837 838 839 839 841 842 844 845 846 847 847 848 848 848 849 849 849 849 849 848 848
857 857 857 856 855 853 852 851 851 849 848 847 846 846 845 844 843 842 841 840 839 837 835 834 833 832 830 829 827 826 825 824 822 821 820 819 818 817 817 817 817 817 818 818 819 820 821 822 822 823 823 823 824 825 827 829 830 831 832 833 834 835 836 837 838 838 839 840 841 843 844 845 846 847 848 848 849 849 849 849 849 849 848 848 848
859 858 858 858 857 855 854 853 853 851 850 849 848 847 847 846 846 845 844 843 841 840 838 837 836 834 833 832 831 829 828 827 825 824 823 822 821 820 820 820 820 820 821 821 821 822 824 824 825 825 826 826 827 828 829 831 833 833 834 835 836 836 837 838 838 839 840 840 841 843 844 845 846 847 848 849 849 849 850 850 849 848 848 847 848
861 860 859 859 858 857 856 855 854 853 852 851 851 850 848 847 847 846 846 845 844 842 841 840 838 837 835 834 833 832 830 829 828 827 826 825 824 823 823 823 823 823 824 824 824 825 826 826 827 828 828 829 830 831 832 833 834 835 836 836 837 838 838 839 840 841 841 841 842 843 845 846 847 848 849 849 850 850 850 850 850 849 849 849 850
864 863 862 860 859 858 857 857 856 855 854 853 853 852 851 850 848 847 847 846 845 844 843 842 841 840 838 837 835 834 832 831 830 829 828 828 827 826 826 826 826 826 826 826 826 827 828 828 829 830 830 831 832 833 834 835 836 837 837 838 839 840 840 840 841 842 843 843 843 844 845 847 848 849 850 850 851 851 851 851 851 850 851 851 851
866 866 864 862 860 859 858 858 857 856 856 855 854 854 853 852 851 850 849 847 846 845 844 843 843 842 841 839 837 835 834 832 831 831 830 829 829 828 828 828 828 828 828 828 828 829 830 830 831 832 833 833 834 835 836 837 837 838 839 840 840 841 842 842 843 844 844 844 845 846 847 848 848 849 850 850 851 851 851 851 851 851 851 852 851
866 866 866 864 862 861 860 859 859 858 857 856 856 855 855 854 853 852 851 850 848 846 845 844 844 843 842 841 839 838 836 834 833 832 831 831 830 830 830 830 830 830 830 830 830 831 832 832 833 834 835 836 837 837 838 839 839 840 841 842 842 843 844 844 845 845 845 846 846 847 848 848 849 850 850 851 851 852 852 852 852 852 853 853 853
867 867 866 865 864 863 862 862 861 860 859 857 857 856 855 855 854 853 852 851 850 848 847 846 845 844 843 842 841 840 839 837 836 834 833 832 832 832 832 832 833 833 833 833 833 833 834 835 836 837 837 838 839 840 841 842 842 843 843 844 844 845 845 846 846 847 847 847 848 848 849 849 850 850 851 851 852 852 853 853 854 854 854 854 854
869 868 868 867 866 864 863 863 863 861 860 859 857 857 856 856 855 854 853 852 852 850 849 848 847 846 845 844 843 842 841 840 838 837 836 835 835 835 835 835 835 836 836 836 836 836 837 837 838 839 839 840 841 842 843 844 845 845 845 846 846 846 847 847 848 848 849 849 849 850 850 850 851 851 852 852 853 854 854 855 855 855 855 855 854
870 870 870 869 867 865 864 863 863 862 861 859 858 858 857 857 856 856 854 854 853 852 850 850 849 848 848 847 845 844 843 842 841 840 839 839 838 838 838 838 838 838 839 839 839 839 839 840 840 840 841 842 843 844 845 846 846 847 847 847 847 848 848 849 849 850 850 850 850 851 851 852 852 852 853 854 854 855 855 855 855 855 855 854 854
871 871 870 869 868 867 865 865 864 863 862 861 859 859 859 858 857 856 856 855 854 854 852 851 851 851 850 849 848 846 844 844 843 843 842 842 841 841 841 841 841 840 840 841 841 841 841 841 842 842 842 843 844 845 846 847 848 848 848 849 849 849 850 850 851 851 851 851 851 852 852 853 853 854 854 855 856 856 856 856 855 854 854 855 855
871 871 871 870 869 868 866 866 865 864 863 862 861 860 860 859 858 857 857 856 856 855 854 853 853 853 853 852 850 848 846 846 845 845 845 845 844 843 843 843 843 842 842 842 842 843 843 843 843 844 844 845 846 847 847 848 849 849 849 850 850 850 851 851 851 851 852 852 853 853 854 854 854 855 856 856 857 857 856 856 855 855 855 855 856
871 871 871 871 869 868 867 866 866 866 865 863 863 862 861 860 859 859 858 857 857 856 855 854 854 854 854 853 851 850 848 848 847 847 847 847 846 846 846 845 845 844 844 844 844 844 845 845 845 846 846 846 847 848 849 849 849 850 850 850 851 851 852 852 852 853 853 854 854 854 855 855 855 856 857 857 857 856 856 855 855 855 856 856 856
872 872 872 871 870 869 868 867 867 866 865 864 864 863 863 861 860 860 859 858 858 858 857 855 855 855 855 854 853 851 850 849 849 849 849 849 848 848 848 847 847 847 847 846 846 846 846 847 847 847 848 848 849 849 850 850 850 851 851 851 852 852 853 853 853 854 854 855 856 856 856 856 856 856 856 856 856 856 856 856 856 856 856 856 856
873 872 872 871 870 869 869 868 867 867 866 866 865 864 863 862 861 860 860 859 859 858 858 856 856 855 855 854 853 852 851 851 850 850 850 850 850 850 849 849 849 848 848 848 848 848 848 848 849 849 849 850 850 851 851 851 851 852 852 852 853 853 853 854 855 855 856 856 857 857 857 857 856 856 856 857 857 857 857 857 856 856 856 856 856
874 873 872 871 871 870 869 869 868 867 867 867 866 865 864 863 861 861 860 859 859 858 858 857 857 856 855 854 853 853 852 852 852 852 851 851 851 851 851 850 850 850 850 850 850 850 850 850 850 850 851 851 851 852 852 852 852 853 853 853 854 854 855 855 856 856 857 857 858 858 858 857 857 857 857 857 857 857 857 857 857 856 856 857 857
874 874 873 872 871 871 870 869 869 868 867 866 865 865 864 863 862 861 860 860 859 859 858 858 857 856 856 855 854 854 853 853 853 853 852 852 851 851 851 851 851 851 851 851 851 851 851 851 852 852 852 852 853 853 853 853 854 854 854 855 855 855 856 856 856 857 858 858 858 858 858 858 857 857 857 857 857 857 857 857 857 857 858 858 858
875 875 874 873 872 872 871 870 869 868 867 866 866 865 864 863 862 861 861 861 860 860 859 858 857 856 856 856 855 855 854 853 853 853 853 853 852 852 852 852 852 852 852 852 852 852 852 853 853 853 853 854 854 854 855 855 855 855 855 856 856 856 856 857 858 858 859 859 859 858 858 858 858 858 857 857 857 857 857 857 858 858 858 858 858
876 875 875 874 873 872 872 871 870 869 868 867 866 865 864 863 863 862 861 861 861 860 859 858 857 856 856 856 855 855 855 854 854 854 853 853 853 852 852 852 852 852 852 852 852 853 853 853 854 854 854 854 855 855 856 856 856 856 856 856 856 857 857 858 859 859 859 859 859 859 859 858 858 858 858 857 857 857 857 858 858 858 859 858 858
876 876 875 875 874 873 872 872 871 870 869 868 867 866 865 864 863 862 862 861 860 860 859 858 857 857 856 855 855 855 855 855 854 854 854 854 853 853 853 853 853 853 853 853 853 854 854 854 854 854 855 855 855 856 856 856 857 857 857 857 857 857 858 858 859 859 859 859 859 859 859 859 859 858 858 858 858 857 858 858 858 858 858 858 858
877 876 876 875 874 874 873 872 871 870 869 868 867 867 866 865 864 863 862 861 860 860 859 858 858 857 856 855 855 855 855 855 855 854 854 854 854 854 854 853 853 853 853 853 853 854 854 854 854 854 855 855 855 856 856 857 857 857 857 857 857 858 858 858 859 859 858 859 859 859 859 859 859 858 858 858 858 858 858 858 857 857 857 857 857
877 877 876 875 875 874 873 872 871 871 870 869 868 867 867 866 864 863 862 861 860 859 858 858 857 857 856 856 855 855 855 855 854 854 854 854 854 854 854 854 853 853 854 854 854 854 854 854 854 854 855 855 855 856 856 857 857 857 857 857 857 858 858 858 858 858 858 858 858 859 859 859 858 858 858 858 858 857 857 857 857 857 856 856 856
877 876 876 875 875 874 873 872 872 871 870 870 869 868 867 866 865 864 863 862 861 860 859 858 857 856 856 856 855 855 855 854 854 854 854 854 854 854 854 854 854 854 854 854 854 854 855 855 854 855 855 855 855 856 856 856 856 856 857 857 857 858 858 858 858 858 858 857 857 858 858 858 858 858 858 858 858 857 857 857 857 856 856 856 856
Wind_Speed
15 15 15 14 13 13 12 10 11 12 11 10 10 10 10 10 10 11 12 12 13 14 13 14 14 15 17 19 18 18 18 18 17 17 18 18 16 15 15 15 16 16 15 15 16 15 16 16 15 14 15 16 15 14 14 14 13 12 12 11 12 12 11 9 6 9 10 9 10 11 11 13 12 13 12 10 12 14 11 9 10 10 8 7 8
15 15 15 15 14 13 12 11 11 12 10 8 9 9 9 9 10 10 11 12 14 14 14 14 14 14 16 18 17 16 18 18 16 17 18 18 17 16 15 16 17 16 16 15 16 15 15 17 18 16 15 16 16 15 15 15 14 14 13 13 13 13 13 10 8 11 11 10 10 10 11 12 11 12 13 11 12 13 12 10 10 10 9 8 8
16 16 16 16 15 14 13 12 12 12 11 9 8 8 8 9 10 10 11 12 14 16 15 15 15 14 16 18 18 17 18 18 18 19 18 17 17 17 16 17 17 17 16 15 16 16 15 16 18 18 16 15 15 15 15 15 15 15 14 14 14 14 14 11 10 12 13 12 12 11 11 11 10 11 13 12 12 13 12 11 10 9 9 8 8
17 17 16 17 16 15 14 13 12 13 12 10 9 8 8 9 9 10 11 12 14 16 16 15 15 15 16 18 20 21 21 19 18 19 19 17 17 16 16 16 16 16 16 16 17 18 16 15 16 16 16 16 16 16 15 15 15 15 15 15 15 14 14 12 11 13 13 13 12 11 12 11 9 10 12 11 11 12 11 10 10 9 9 8 8
19 18 18 18 16 16 15 14 13 13 12 11 10 9 9 9 9 9 11 12 14 16 16 15 15 15 17 18 19 21 23 21 18 18 18 17 16 16 16 16 14 14 17 17 18 18 16 15 15 16 16 17 16 16 16 16 16 16 16 16 16 15 14 13 12 13 13 14 13 11 11 12 10 9 11 11 12 12 11 10 10 10 9 8 8
20 20 19 19 18 17 17 16 14 14 14 13 11 10 10 10 9 9 10 11 13 15 15 15 15 16 18 17 17 20 23 22 20 19 19 17 16 16 16 16 16 16 17 17 18 17 16 16 16 16 16 17 17 17 17 17 17 17 16 17 17 16 15 14 13 13 13 13 13 12 11 11 11 10 10 10 11 12 12 11 10 9 9 9 8
20 20 20 20 19 19 19 17 16 16 16 15 13 12 11 11 10 10 10 11 12 14 15 15 16 17 18 18 17 19 22 23 22 21 20 18 17 17 16 16 17 18 17 17 17 17 16 16 15 16 17 17 17 17 17 17 17 17 17 17 17 17 16 15 14 13 13 13 13 13 12 12 11 10 10 10 10 10 11 11 11 10 10 9 9
20 20 20 21 21 21 20 18 17 17 17 16 14 13 12 11 11 10 10 11 11 12 14 15 16 16 17 17 16 18 22 23 23 22 20 17 17 17 16 16 16 16 17 17 17 16 16 16 16 16 16 17 17 17 17 17 17 15 15 15 15 16 16 16 15 15 14 12 12 12 12 12 11 10 10 10 10 10 10 10 10 10 10 9 9
19 19 20 21 21 21 21 20 19 19 18 18 16 15 13 12 11 11 10 11 12 12 13 15 16 17 18 16 16 17 19 20 22 23 21 18 17 17 16 16 15 15 16 16 16 16 16 16 16 16 16 17 18 17 16 16 15 12 13 14 13 13 15 16 15 15 14 13 13 13 12 12 12 12 11 12 12 10 9 9 8 8 8 8 8
18 19 19 20 21 21 21 21 21 20 20 20 19 17 16 13 12 11 10 11 12 12 13 13 15 17 18 16 16 17 16 17 20 24 22 20 18 17 15 15 16 15 15 15 16 16 16 16 16 17 18 18 18 18 16 16 16 14 14 17 15 13 14 16 16 16 15 14 13 13 13 13 13 13 13 12 11 10 9 10 9 8 8 8 7
16 17 19 20 21 22 21 21 21 21 21 20 19 19 18 15 13 11 10 10 10 11 12 12 13 15 17 17 16 15 15 16 19 22 23 21 18 16 15 15 16 15 15 16 16 16 16 16 15 16 18 18 18 19 17 17 18 16 15 19 20 16 14 14 15 15 15 14 14 13 13 13 14 14 13 11 11 11 10 10 10 9 9 9 6
16 17 18 19 20 22 22 22 22 22 21 21 20 19 19 17 17 14 12 12 12 11 11 12 14 15 17 18 17 15 14 15 18 22 25 23 20 16 15 15 16 16 16 17 17 17 16 15 12 12 16 19 19 19 20 19 18 17 16 18 21 20 18 15 13 11 12 12 13 13 12 13 14 14 13 12 11 10 9 9 9 8 8 8 6
17 17 18 18 20 21 22 22 22 22 22 21 20 20 19 19 19 18 16 14 12 10 8 9 11 14 17 19 19 17 16 17 18 22 24 23 20 18 16 15 16 16 16 17 17 16 15 15 12 11 14 19 17 17 20 20 18 19 20 20 20 22 21 19 15 12 12 12 12 12 12 12 13 12 12 11 11 10 9 9 8 7 6 7 5
17 18 19 19 19 20 21 21 21 22 22 21 21 20 19 19 18 17 17 15 12 9 7 6 6 8 13 18 18 17 19 22 21 22 24 23 20 20 17 14 14 15 16 16 16 15 15 15 13 12 15 17 15 14 18 20 17 17 18 17 17 19 19 17 16 15 13 10 10 11 10 10 11 11 11 11 10 9 8 7 7 6 5 4 2
17 19 20 19 20 21 21 21 21 22 22 21 21 20 19 19 17 16 15 15 14 10 8 6 5 3 6 12 15 16 19 22 22 22 23 23 21 19 16 12 12 13 13 13 14 13 14 14 13 13 14 15 15 15 15 15 13 13 13 11 11 13 14 13 14 14 11 9 10 12 13 12 12 13 13 10 8 8 7 6 5 5 4 4 4
18 20 20 20 20 20 20 21 21 22 22 21 21 21 20 18 17 16 14 13 14 13 11 8 6 4 2 3 7 10 13 16 20 22 23 23 21 19 14 11 11 11 11 11 11 11 11 11 11 12 12 14 16 17 15 15 15 16 15 12 11 11 12 12 13 14 14 14 15 16 16 16 15 15 14 12 9 8 7 6 4 4 6 6 7
18 20 19 19 19 19 19 20 20 21 21 22 22 21 20 18 17 15 15 14 14 14 13 12 10 8 6 5 3 3 5 10 15 17 16 18 18 15 13 11 11 11 10 10 9 9 10 11 10 11 13 15 17 18 19 18 17 16 16 16 15 14 13 11 11 12 14 16 17 16 16 15 14 14 13 11 9 7 5 5 5 5 7 8 8
18 20 19 18 18 18 18 18 18 20 21 21 21 21 20 19 17 16 15 15 15 15 14 14 14 14 13 11 9 7 6 6 9 10 9 12 12 9 10 11 11 11 10 9 8 9 12 13 12 11 13 17 19 20 20 20 20 20 21 21 19 17 15 14 13 12 13 14 15 15 13 12 10 10 9 7 7 7 3 1 3 4 6 6 5
18 19 19 18 18 18 18 17 17 19 20 20 20 20 19 19 18 17 16 16 15 15 15 16 18 19 19 19 15 12 12 11 8 7 7 9 9 8 8 7 7 10 10 9 8 8 11 14 14 14 16 20 22 23 22 21 22 23 23 22 18 15 15 15 15 14 13 12 13 12 12 11 9 8 7 6 7 7 4 3 2 2 4 2 1
17 18 18 18 18 18 18 17 15 16 18 19 19 19 19 18 18 18 18 17 17 17 17 18 19 21 24 26 23 19 17 14 9 5 3 4 6 10 10 7 5 8 9 9 9 10 11 14 15 17 21 25 26 23 20 17 18 19 19 17 16 15 15 15 14 14 13 13 13 13 13 12 10 9 9 7 6 6 5 5 4 2 0 2 1
17 17 18 18 19 19 19 20 20 18 17 18 19 20 20 20 19 19 19 19 19 19 19 19 20 22 25 28 28 27 24 18 13 8 3 1 3 8 10 10 8 8 10 11 12 13 14 15 16 19 23 25 22 18 16 15 16 16 15 15 18 19 18 17 15 13 14 14 13 13 12 11 10 10 9 8 7 6 5 5 5 4 3 1 1
17 17 17 18 19 19 19 22 25 24 21 19 18 19 20 20 20 19 19 19 19 19 19 19 19 20 22 26 31 34 31 25 20 16 10 6 4 5 7 9 9 11 14 15 15 16 16 17 18 17 18 19 18 16 16 16 17 16 13 15 19 19 18 16 14 12 12 12 11 11 10 10 10 9 8 8 7 7 6 5 5 5 5 5 5
16 17 17 17 18 19 19 21 24 25 25 22 19 18 19 19 18 19 18 17 17 18 19 19 19 20 21 25 32 35 34 30 28 25 19 14 11 10 9 9 10 14 17 19 19 19 18 19 18 17 16 17 17 17 17 15 15 14 13 14 17 17 16 16 13 12 11 10 10 10 9 9 9 9 8 7 7 6 6 6 7 7 6 7 7
16 17 17 17 17 17 18 20 22 24 25 24 20 18 18 17 17 18 18 17 16 18 19 19 19 20 21 25 31 33 32 31 30 29 26 23 21 18 16 14 14 16 20 21 20 19 18 17 17 17 16 16 16 16 16 16 16 16 16 15 14 15 16 16 14 13 13 12 11 11 9 9 8 8 7 7 7 7 7 7 7 8 7 7 8
17 17 17 17 17 16 16 18 20 22 24 25 22 18 18 18 17 17 18 18 18 18 19 19 19 19 20 22 27 29 29 30 29 28 28 28 27 24 21 19 17 18 21 22 19 18 17 15 15 16 15 14 15 15 17 17 17 17 17 15 14 13 14 15 15 15 16 14 13 11 10 8 7 7 7 7 7 7 7 7 7 7 7 8 8
16 16 17 17 17 17 16 16 17 19 20 21 20 19 19 19 19 19 19 18 18 18 18 18 18 18 19 19 22 26 28 28 28 27 27 27 27 25 24 23 22 21 22 22 21 20 17 15 16 18 16 15 16 17 18 18 17 17 16 16 16 15 15 16 16 16 14 12 10 9 8 7 7 8 8 7 6 5 6 7 7 6 6 6 6
15 16 16 16 16 17 16 15 16 18 20 20 19 18 18 19 21 22 20 19 18 17 18 19 18 18 17 17 18 22 26 27 26 26 25 24 24 22 21 22 22 22 22 21 21 20 18 16 18 19 18 18 19 20 19 18 17 17 17 17 17 18 17 17 17 16 14 11 10 9 8 7 7 7 6 6 5 5 5 5 6 6 5 5 5
15 15 15 15 15 16 16 16 15 16 18 20 21 21 19 18 20 21 21 21 19 17 17 18 18 17 17 17 17 18 22 25 25 24 22 22 22 21 20 21 21 22 21 20 20 21 20 19 19 20 20 19 20 20 20 19 18 18 17 17 17 17 16 15 15 14 13 12 11 10 8 7 6 6 6 6 5 4 4 4 4 5 5 5 4
15 15 15 15 15 15 16 16 16 16 15 16 20 23 23 21 19 19 21 24 24 21 20 19 17 15 16 18 18 17 18 20 20 19 18 18 19 19 20 20 21 21 19 18 19 20 19 19 18 18 19 18 18 19 19 18 18 18 17 17 16 14 13 12 12 12 11 11 10 9 8 7 6 6 6 6 5 4 4 4 4 4 4 4 4
15 16 16 15 14 15 15 15 15 16 15 14 14 18 22 24 23 21 21 23 24 24 24 23 20 17 16 17 20 19 17 17 17 16 15 15 16 16 17 17 17 17 16 15 16 16 15 15 16 16 17 18 18 19 18 17 16 16 14 14 12 12 11 10 10 11 11 10 10 9 8 7 6 6 6 6 5 5 4 4 4 4 4 4 4
15 15 16 15 14 13 14 15 14 15 16 15 13 12 15 19 22 22 22 22 22 23 23 23 23 21 19 17 18 20 19 18 18 16 14 13 12 12 13 13 14 14 13 13 14 14 14 15 16 16 17 18 18 17 16 14 13 12 11 10 10 9 10 10 10 11 12 11 10 9 8 7 6 6 6 6 6 6 5 4 4 4 4 4 4
15 15 15 14 14 13 13 14 14 14 14 15 15 14 12 12 14 16 18 21 22 23 24 23 23 23 22 20 18 18 18 18 17 16 15 13 11 9 8 9 9 9 10 11 12 13 14 15 16 16 16 16 16 14 13 12 11 10 10 10 10 10 12 12 11 10 11 11 10 9 8 7 7 7 6 6 6 6 6 6 6 5 5 5 5
15 15 14 14 14 14 14 13 13 13 13 13 13 13 14 13 12 11 12 14 16 19 22 24 24 23 23 22 21 18 16 14 14 13 13 13 11 9 7 6 6 6 7 9 12 13 14 14 14 14 13 14 13 12 12 11 10 10 10 10 11 12 13 12 11 10 10 10 9 9 8 8 7 7 7 6 6 7 6 6 6 6 6 6 5
13 13 14 14 14 15 15 15 14 13 13 12 12 12 12 13 14 13 12 12 12 14 17 20 23 25 24 23 22 20 17 14 12 10 9 9 9 9 7 6 6 5 4 8 12 13 13 13 13 12 11 11 10 10 10 10 10 11 12 12 11 11 11 10 10 10 9 9 9 8 8 8 8 7 7 7 6 6 6 5 5 5 5 4 3
12 12 12 13 13 14 15 15 15 14 13 12 12 11 11 12 12 13 14 14 14 14 15 15 18 22 25 25 24 23 20 17 15 12 9 7 6 6 6 5 4 5 5 8 11 12 12 12 12 11 10 10 9 9 9 10 11 12 13 12 10 9 9 8 8 8 8 8 8 8 8 7 7 6 6 6 6 6 6 5 5 4 4 3 3
11 11 12 12 12 13 13 14 15 14 13 13 12 11 10 11 11 12 13 13 14 15 16 14 13 17 22 24 23 22 21 20 19 17 14 11 7 6 6 5 4 5 7 8 10 11 11 11 9 9 9 9 9 8 9 9 10 10 10 9 9 8 8 8 7 7 7 8 8 8 8 7 7 6 6 7 6 6 6 5 5 4 3 2 2
10 11 11 11 11 11 11 12 13 12 12 13 13 11 10 10 11 11 12 13 14 14 16 15 15 16 19 20 19 19 19 19 18 18 18 16 13 10 8 7 6 7 7 8 9 9 9 8 7 7 7 7 8 8 8 9 9 8 8 8 7 7 7 8 8 7 8 8 8 7 7 7 6 6 6 6 6 5 5 5 4 4 3 1 0
9 10 11 11 10 10 10 11 11 12 13 14 15 13 11 10 10 10 11 12 13 13 15 15 16 17 19 19 17 16 16 16 16 16 15 15 14 11 9 8 7 7 6 6 6 6 6 6 6 6 7 8 8 8 9 9 8 8 7 8 8 9 9 10 9 8 8 8 8 7 7 6 5 5 5 5 5 5 4 3 4 4 3 1 1
8 9 10 11 9 8 9 10 10 12 13 15 15 13 11 10 10 10 11 12 13 14 14 15 15 16 17 17 16 15 14 14 15 15 14 13 12 11 9 8 7 6 5 5 4 4 4 5 6 7 8 9 9 9 9 9 8 7 8 9 9 10 9 9 8 7 7 7 7 6 5 5 5 5 5 4 4 4 4 3 3 3 3 3 4
7 7 9 10 9 8 8 8 9 10 12 13 14 13 12 11 10 10 11 11 12 13 14 14 14 14 15 16 16 15 15 14 14 13 13 12 11 10 9 8 7 6 6 5 5 5 6 6 7 8 8 9 9 9 9 8 7 7 8 8 8 7 7 7 7 6 6 6 6 6 5 5 4 4 4 4 4 4 4 4 3 3 3 4 3
6 6 7 8 8 8 7 7 8 8 9 11 12 12 12 12 11 11 11 11 12 12 13 13 12 12 13 16 16 15 14 14 13 12 12 11 10 9 9 8 8 7 7 6 6 7 7 7 8 8 8 8 8 8 8 7 6 6 7 7 7 7 6 6 6 6 6 5 5 5 4 4 3 4 4 3 3 3 3 3 3 3 3 3 2
6 7 7 7 8 8 7 7 7 7 7 9 10 10 10 11 11 11 11 11 12 12 12 12 11 11 12 15 14 13 13 14 13 11 11 10 9 9 8 8 8 7 7 7 6 7 7 7 8 8 8 8 7 7 6 6 5 6 6 6 6 6 6 6 6 6 5 5 5 4 4 3 3 4 3 2 2 2 1 1 2 2 3 3 2
6 7 7 7 7 7 7 7 7 7 7 8 7 7 8 9 10 10 10 11 12 12 12 12 12 10 11 12 12 11 12 13 13 11 10 9 8 7 7 7 7 7 7 6 7 7 7 7 7 7 7 7 6 6 5 5 5 5 6 6 6 5 6 6 6 5 5 5 4 4 3 2 2 3 2 1 1 1 1 1 1 1 1 2 1
6 7 7 7 7 8 7 7 7 7 7 6 6 6 7 8 9 9 10 11 11 12 12 12 12 11 10 10 10 10 11 12 12 10 9 9 8 7 6 6 6 7 7 7 6 6 6 6 7 7 7 6 6 5 5 5 5 4 4 5 5 5 5 5 5 4 4 4 3 3 2 1 1 1 1 1 0 0 1 1 0 0 0 0 0
6 7 7 7 7 8 7 8 8 7 7 8 8 7 8 9 9 9 9 10 11 11 11 11 11 10 10 10 11 11 11 11 11 9 8 7 7 6 5 4 4 5 6 6 6 6 6 5 6 6 6 5 5 5 5 4 4 4 4 4 4 5 5 4 4 4 3 2 1 1 1 1 1 1 1 1 1 2 1 1 1 1 2 2 1
7 7 7 7 8 8 8 8 8 8 8 9 9 9 9 9 9 8 9 9 9 10 10 10 10 10 9 9 10 10 10 10 10 9 7 6 5 5 4 3 2 2 2 3 4 5 5 5 5 5 5 4 4 4 4 4 4 4 4 4 4 5 5 4 3 3 2 1 2 1 1 1 2 3 3 3 2 2 2 2 2 3 3 4 3
6 6 7 8 8 8 8 8 8 8 8 9 9 10 10 9 9 8 8 7 8 8 9 9 9 9 9 8 9 9 9 8 8 8 7 5 4 3 3 3 2 2 2 2 3 3 3 3 3 3 3 3 4 4 3 3 3 3 3 4 4 4 3 3 3 2 1 0 2 2 3 3 3 3 3 3 2 2 1 3 4 4 5 5 5
6 6 6 7 7 8 8 8 8 8 8 8 9 9 10 10 9 9 9 8 8 9 9 8 8 9 8 8 8 8 8 8 7 7 6 5 4 2 2 2 2 2 1 2 4 4 3 1 1 2 3 3 3 3 2 2 2 2 2 2 3 4 5 4 3 1 1 1 1 2 3 3 4 4 2 2 2 2 2 3 4 4 5 6 6
5 5 6 6 6 7 7 7 7 8 8 8 8 9 9 9 9 9 10 10 9 9 9 9 8 8 8 8 8 8 8 8 7 6 5 4 3 2 1 1 1 1 1 1 3 4 4 3 3 3 3 2 2 2 2 2 2 2 2 4 6 6 6 5 4 4 3 1 1 2 3 3 4 4 2 2 2 3 3 3 3 4 5 6 6
4 4 4 5 5 6 6 6 7 7 8 8 8 8 9 9 9 9 10 10 10 10 10 10 9 8 8 8 8 8 8 8 7 6 5 4 2 1 0 0 1 1 1 1 2 4 4 4 5 4 4 3 3 3 2 2 3 3 5 6 6 6 5 5 5 4 3 2 2 3 4 4 3 3 3 3 3 3 3 4 4 4 5 6 6
2 3 3 4 4 5 5 5 6 6 6 7 8 8 9 9 9 9 9 9 10 10 10 10 10 9 8 8 8 8 7 8 7 6 5 4 2 1 1 1 1 1 2 2 3 4 4 4 5 5 4 4 4 4 3 4 5 6 7 7 6 5 5 4 4 4 5 5 4 3 4 4 4 4 4 3 4 4 4 4 4 4 4 6 7
Wind_Direction
341 338 334 332 332 332 330 324 314 304 293 282 279 280 278 269 260 253 247 242 241 240 234 225 220 222 227 230 230 226 223 219 212 207 206 205 203 204 204 204 207 209 207 207 211 214 207 202 204 205 202 202 204 203 200 199 197 199 199 192 191 190 192 211 210 167 160 171 173 169 171 174 179 184 178 174 184 183 173 185 197 184 176 190 195
343 339 335 333 334 334 336 338 330 321 313 304 297 296 295 285 272 263 255 249 246 242 235 227 223 224 229 233 233 229 225 222 217 212 209 206 204 204 204 205 206 207 207 208 212 215 209 205 205 203 202 204 204 202 200 198 197 198 199 194 190 187 190 203 194 167 161 168 171 167 168 178 185 185 183 179 178 182 180 185 191 185 182 187 191
345 341 337 335 337 338 340 345 345 340 334 325 316 311 306 295 283 274 266 257 250 245 235 228 224 225 229 230 227 224 222 223 225 221 215 208 206 206 204 205 203 202 204 206 209 215 215 211 205 199 201 206 204 204 203 201 201 200 198 196 191 184 188 198 189 169 165 168 172 169 169 181 188 183 185 182 177 182 185 185 188 187 189 191 189
347 343 340 338 340 343 344 346 349 349 346 336 327 318 307 299 292 283 275 268 259 250 240 232 227 223 222 225 226 225 221 220 224 226 221 211 208 207 207 206 202 199 202 204 208 214 216 214 208 199 200 204 203 205 206 203 204 204 199 196 191 182 183 192 188 172 164 166 176 176 168 177 187 179 178 181 180 185 188 187 189 188 191 197 194
352 348 344 342 344 346 347 347 348 349 349 345 334 321 310 303 293 282 274 269 263 256 244 235 231 223 219 224 228 228 225 220 219 225 226 218 212 212 211 207 201 199 201 205 212 217 214 213 212 205 202 204 205 206 206 204 204 205 202 196 190 181 180 186 185 177 170 167 173 174 166 174 183 177 178 182 182 188 192 191 192 193 194 197 197
358 355 352 350 350 350 351 349 347 347 348 347 340 324 310 300 291 281 270 265 264 261 251 239 233 228 224 223 224 226 226 222 219 221 225 224 217 215 214 210 207 207 206 209 216 218 214 213 212 209 206 207 208 207 207 206 204 204 203 197 190 181 178 183 182 181 180 173 170 173 172 176 178 178 185 188 186 189 191 191 197 199 196 200 203
2 2 359 357 355 354 354 351 348 347 345 342 337 324 310 299 292 281 268 264 263 260 257 248 238 234 230 225 221 222 223 224 224 220 220 226 223 217 217 215 210 208 209 213 216 215 214 213 211 211 209 209 210 209 206 205 204 204 202 198 192 182 178 183 183 181 185 181 176 179 180 180 182 184 188 192 194 194 191 191 198 199 199 205 209
5 6 4 1 358 356 354 352 349 347 345 342 337 328 317 304 295 286 273 265 260 256 256 252 244 240 236 228 222 220 220 223 226 220 213 220 227 222 219 218 212 207 208 212 214 212 212 214 214 213 211 210 211 209 206 206 205 204 201 195 188 181 180 185 187 185 187 187 186 188 185 184 187 187 186 189 197 202 199 197 196 193 195 203 211
8 9 8 4 360 357 355 353 351 349 348 347 344 338 327 312 297 290 281 272 265 258 252 248 246 245 239 229 221 221 219 218 224 221 209 210 222 222 217 217 214 210 208 209 212 211 211 214 216 214 212 212 212 208 207 206 202 201 198 186 178 181 187 188 191 192 191 190 193 193 191 191 190 188 188 192 199 200 194 196 204 198 194 202 208
9 11 10 5 2 360 358 355 353 352 352 350 349 346 340 326 307 295 287 279 271 265 260 253 248 247 244 236 226 223 219 214 222 224 212 206 215 217 213 213 210 208 207 207 210 211 211 213 217 217 214 214 213 209 208 209 206 207 202 190 185 190 192 191 194 196 195 197 199 196 195 196 194 192 194 195 195 192 184 190 204 203 204 215 206
10 11 11 7 5 3 360 357 356 355 354 353 352 350 347 343 333 318 303 292 280 269 263 256 246 242 243 241 233 227 221 215 221 226 219 212 214 214 212 211 208 205 205 204 206 208 207 209 215 217 215 215 216 213 211 213 213 213 208 199 197 198 195 198 202 199 197 198 197 197 199 197 192 192 192 187 186 188 191 198 209 210 216 225 203
11 11 11 9 9 6 1 359 360 358 357 356 355 354 352 352 350 345 332 316 304 291 273 260 253 244 236 232 230 230 229 223 224 229 228 222 217 215 216 214 211 209 206 202 203 203 200 201 203 207 211 213 215 215 216 217 215 214 211 205 205 206 202 206 212 212 214 208 195 195 198 189 185 189 190 184 180 184 192 201 212 214 221 239 225
12 11 10 8 9 8 4 2 2 2 1 360 359 359 358 358 358 357 351 337 322 314 297 274 263 248 235 231 231 234 239 238 234 234 233 225 217 216 219 217 214 213 208 204 205 201 196 196 191 191 207 214 213 212 217 219 214 211 212 212 214 215 209 206 208 214 225 220 198 190 191 184 181 181 177 173 170 175 186 194 201 206 216 241 249
14 12 10 8 8 8 7 7 6 5 4 3 4 5 4 4 3 2 1 356 348 338 324 308 291 258 236 232 231 229 233 239 240 235 230 223 215 214 218 218 216 214 210 208 208 203 199 199 193 196 208 212 205 202 212 217 212 208 212 216 218 218 215 215 214 213 219 219 193 174 173 174 170 158 152 155 159 167 181 189 194 202 206 211 202
16 14 12 9 8 7 8 10 10 9 8 8 9 9 8 7 6 6 8 10 11 7 355 347 343 315 237 225 224 219 224 235 239 231 223 219 214 213 214 213 211 210 208 206 205 203 202 201 199 201 203 202 200 200 200 199 189 176 177 181 183 191 200 207 203 196 193 185 164 152 148 147 146 143 142 143 151 166 175 176 174 182 189 179 167
19 17 13 11 9 8 9 10 12 13 12 11 12 11 11 11 10 10 12 16 21 23 22 24 23 21 54 190 205 208 218 230 231 224 218 215 213 209 202 197 196 195 193 192 194 195 195 195 197 194 189 194 203 200 186 171 160 155 156 154 153 163 173 177 174 170 167 161 155 153 152 151 153 156 156 153 153 162 171 177 175 188 210 213 204
21 19 16 14 12 10 9 11 13 15 14 14 14 12 12 13 13 15 16 19 23 26 31 39 46 52 60 76 108 159 200 214 218 219 214 207 206 199 184 179 182 180 176 171 172 178 181 189 197 190 186 194 197 191 181 168 155 150 147 140 134 135 134 135 141 147 150 152 153 153 152 152 155 161 164 165 160 153 170 197 191 203 234 243 240
22 21 18 16 15 13 12 13 16 18 18 17 16 15 14 15 17 20 22 24 26 28 32 39 49 57 63 67 72 74 83 139 188 205 196 189 190 179 166 168 166 160 155 148 153 173 179 178 179 181 189 194 186 177 171 160 147 143 142 137 131 127 124 126 130 130 129 133 136 138 138 140 145 150 154 163 160 148 141 176 183 216 243 252 261
21 22 21 20 20 19 18 16 19 23 24 23 21 20 19 21 23 27 29 29 31 32 35 39 44 50 58 64 68 69 70 88 131 170 188 190 177 144 135 150 153 146 142 137 142 161 171 169 169 176 181 176 164 156 155 152 148 145 144 141 135 133 135 136 132 126 120 114 113 116 119 120 123 128 129 138 153 150 130 101 103 258 249 223 295
21 25 26 27 28 28 26 23 25 27 27 29 30 28 27 27 30 34 35 36 38 38 38 42 43 46 52 56 57 60 64 70 88 122 203 224 181 148 134 122 118 125 125 122 123 132 149 159 162 164 163 157 151 148 150 157 159 152 148 149 146 142 142 138 128 122 118 113 110 110 109 107 104 103 106 115 132 144 153 147 115 56 38 162 202
25 29 32 35 37 39 39 41 46 44 37 36 38 38 38 37 36 37 37 39 41 40 39 41 42 44 49 50 49 54 60 63 64 65 48 273 184 166 151 134 122 120 120 122 124 128 136 143 146 151 154 153 152 153 157 165 165 154 150 156 156 151 146 138 130 122 116 115 116 113 110 108 102 98 99 101 104 105 114 130 111 76 63 72 213
29 32 36 40 43 42 41 47 55 56 51 46 43 41 42 41 40 41 41 41 43 42 41 41 41 43 46 48 50 54 57 59 62 64 68 79 103 139 149 146 143 139 130 123 120 119 118 123 132 142 151 153 153 152 153 157 156 146 142 150 154 152 144 134 127 123 120 121 123 122 119 116 110 108 106 101 97 94 89 92 90 76 72 62 51
31 34 37 40 42 41 37 42 51 56 55 51 44 40 41 40 39 41 40 39 40 41 39 39 40 43 44 46 52 56 56 56 58 62 66 74 84 94 110 127 140 143 131 119 114 115 113 115 121 129 137 141 142 141 142 143 140 132 131 143 149 146 137 130 125 123 122 121 120 119 121 122 120 119 116 108 105 103 95 93 90 82 86 89 78
36 37 38 39 40 41 40 40 43 49 53 52 44 37 38 39 37 37 37 36 37 39 39 37 38 41 42 44 49 54 57 56 56 58 62 69 76 82 92 106 121 129 123 114 112 113 111 111 118 127 134 136 134 133 131 127 124 122 125 135 142 142 140 138 135 133 131 127 122 118 117 118 119 121 121 119 119 113 104 100 99 92 93 97 94
38 39 40 40 40 41 42 41 39 42 47 49 43 35 33 36 35 34 35 35 35 37 40 40 41 41 41 43 46 51 56 59 59 57 58 64 69 74 80 90 103 112 111 107 106 103 101 105 111 116 124 129 128 125 120 117 118 121 124 128 133 138 144 145 144 142 138 133 128 122 116 114 119 126 128 126 124 120 114 111 110 111 114 111 104
38 38 39 41 40 40 40 38 37 38 39 42 41 37 37 39 37 34 34 34 34 34 35 36 39 42 43 43 44 48 54 58 59 60 60 62 67 71 76 82 88 93 94 94 95 93 93 99 103 103 108 116 118 117 117 118 122 125 127 132 136 139 142 144 144 140 131 122 117 114 111 114 121 123 123 122 126 132 136 134 132 136 142 139 130
37 36 36 37 37 38 38 37 37 38 37 37 37 36 36 38 37 33 30 27 27 29 32 34 34 33 36 37 38 43 49 52 55 58 63 67 70 72 77 83 87 88 89 90 92 94 97 102 103 102 107 112 114 115 118 121 125 128 132 136 139 141 143 145 146 143 134 125 119 113 110 113 114 112 114 121 128 135 146 153 149 147 153 162 160
38 38 36 35 35 34 36 37 39 42 42 41 39 35 35 38 40 36 32 32 32 30 31 34 33 29 30 31 30 33 40 44 46 50 58 67 75 78 81 84 86 89 93 97 100 103 105 106 105 105 108 110 111 113 116 119 122 125 128 130 132 135 138 141 142 139 135 132 126 117 112 113 112 112 118 123 123 122 129 141 144 148 157 162 157
40 39 38 37 36 35 36 36 36 38 43 48 48 45 42 43 48 47 44 43 44 43 42 40 36 34 34 34 33 32 32 34 39 44 52 61 71 77 81 82 84 87 92 98 103 106 107 107 107 106 105 106 107 108 111 115 119 122 124 125 126 128 130 131 131 128 126 124 118 112 112 115 115 118 121 118 113 110 112 124 135 146 156 150 132
42 41 40 38 36 36 39 39 37 36 37 45 56 57 52 49 50 52 52 50 48 47 47 46 43 42 43 40 39 38 36 34 37 43 51 59 65 71 76 78 81 85 88 92 96 99 102 105 107 107 108 111 114 114 115 117 119 119 120 122 125 128 129 130 130 130 127 120 112 111 115 117 119 123 121 117 116 114 113 122 131 135 139 134 120
41 41 41 38 32 33 39 40 38 38 37 37 42 53 60 60 56 51 48 48 48 47 47 45 43 42 43 41 37 36 36 36 38 41 47 54 61 71 79 82 83 86 90 94 98 101 105 109 111 112 115 116 116 116 117 119 118 117 119 121 123 125 126 124 125 128 128 120 112 112 114 114 115 117 118 121 124 122 120 124 128 131 131 124 117
40 38 40 39 35 33 36 36 34 34 36 36 34 33 41 56 63 58 48 43 43 44 44 43 41 39 38 37 33 30 29 30 33 37 41 46 51 62 78 91 97 103 107 109 112 118 123 123 119 118 118 118 117 117 118 118 119 121 123 123 122 125 125 121 117 120 122 118 113 112 112 113 116 118 119 123 122 118 118 118 114 109 104 104 113
41 37 35 35 37 36 34 32 31 29 29 31 32 31 30 30 36 47 49 44 42 42 42 40 38 36 36 35 32 28 25 24 26 30 35 40 45 48 59 77 92 106 125 132 130 129 131 130 126 124 122 121 122 123 123 122 122 124 124 123 125 128 128 123 118 116 116 114 114 115 116 118 122 122 120 119 117 115 117 118 118 115 110 112 127
47 45 35 30 34 36 34 31 29 26 25 25 27 29 32 30 24 23 27 30 33 38 38 36 33 31 31 32 32 31 29 27 24 23 23 26 33 39 45 57 64 69 110 142 139 133 132 131 129 127 126 125 129 133 134 135 136 134 130 126 124 124 122 119 118 117 114 114 116 117 119 123 126 126 125 123 121 118 113 107 107 111 112 118 132
46 47 37 30 31 33 33 30 27 23 20 22 22 22 25 29 26 22 22 19 17 22 26 28 30 29 26 26 28 31 33 32 29 25 19 8 8 23 34 43 58 76 109 133 133 129 127 125 125 127 129 130 134 135 134 134 135 134 131 126 121 119 118 116 116 116 113 113 115 114 116 119 122 121 119 118 115 113 107 100 97 101 109 118 122
36 36 32 29 28 29 31 30 28 25 21 19 19 18 20 22 20 19 23 22 16 15 18 22 29 30 25 23 23 24 27 32 34 34 35 34 33 38 42 48 73 100 117 127 128 126 123 119 118 121 124 125 126 124 124 126 128 128 128 125 122 122 121 120 120 119 117 114 113 113 114 115 115 115 113 109 105 100 96 96 96 95 97 105 110
34 27 24 23 21 23 29 29 24 23 23 20 18 16 16 20 19 16 19 21 17 14 16 20 24 24 22 21 20 19 20 25 31 33 37 41 46 50 51 58 78 94 103 108 113 118 118 113 110 114 118 122 123 125 129 133 132 129 129 129 126 126 127 127 123 122 122 121 116 114 114 112 112 116 116 113 111 111 111 113 113 105 97 82 38
37 31 24 21 18 18 23 25 21 20 21 22 23 22 17 16 17 16 17 20 18 14 15 20 22 21 20 18 18 21 23 26 29 31 33 38 44 48 52 60 74 86 92 94 96 102 107 108 111 118 123 127 131 133 137 138 135 130 125 120 117 120 125 126 121 116 119 122 120 119 121 118 114 114 113 111 114 119 123 130 129 122 116 93 51
42 38 27 22 20 17 19 20 20 22 21 20 23 25 21 17 18 16 14 16 17 14 14 18 21 23 21 16 14 20 26 28 29 29 31 36 41 46 51 56 62 71 78 81 83 90 102 110 116 122 127 130 133 136 137 134 129 123 121 119 118 119 122 124 122 118 117 120 121 122 123 118 112 113 117 120 126 127 124 117 103 96 96 87 75
33 33 25 17 12 12 16 18 17 18 19 20 21 24 23 21 21 19 15 15 14 12 13 16 19 22 21 17 16 20 25 28 30 30 31 36 39 43 49 54 56 60 66 72 80 92 104 111 115 120 125 128 130 133 133 132 128 126 128 130 129 125 123 123 123 119 116 116 118 121 120 118 119 124 127 130 133 133 131 121 104 86 84 90 90
19 22 21 13 6 5 11 16 15 13 14 16 19 21 22 22 23 21 17 16 14 10 9 13 17 18 14 12 17 24 27 27 30 32 33 36 40 42 46 51 55 59 67 75 85 95 103 109 113 116 118 121 125 126 125 124 123 124 129 131 129 124 120 116 113 112 112 111 110 111 113 114 121 126 130 134 137 140 144 136 122 110 93 86 80
18 21 19 13 10 7 4 3 4 5 7 11 15 17 17 19 23 24 20 17 16 13 9 9 12 13 9 9 15 24 27 26 28 32 33 37 41 43 45 49 52 58 66 73 82 93 102 106 110 113 114 116 120 122 122 122 120 120 124 126 128 126 121 114 111 110 109 105 100 100 104 110 117 119 122 129 140 144 143 125 114 106 86 75 61
17 23 23 19 16 12 5 356 355 358 2 5 6 5 3 6 14 19 19 19 19 15 11 9 10 10 9 10 12 18 23 25 27 29 32 37 41 44 46 49 51 57 67 75 82 92 99 103 105 109 112 111 108 107 108 109 111 115 121 122 121 120 119 118 118 117 112 110 110 113 119 126 128 119 109 91 78 96 121 132 130 102 93 89 63
18 20 23 20 15 12 8 0 356 355 352 346 343 343 346 350 358 6 10 14 17 15 12 12 12 9 8 9 9 11 18 24 26 27 32 36 39 42 49 53 55 59 67 75 83 88 89 92 96 98 97 94 89 87 88 85 83 92 108 118 122 123 120 117 114 109 108 116 128 136 136 116 101 111 109 97 324 240 176 177 211 319 324 187 47
27 22 20 19 15 13 11 6 359 352 344 338 335 332 333 338 346 354 359 4 8 9 9 10 12 11 10 11 12 12 15 20 24 26 29 32 36 42 51 60 67 69 69 72 81 86 84 85 89 90 89 88 85 84 87 86 81 81 89 102 114 117 110 102 93 87 87 93 125 147 143 86 8 338 341 331 284 263 248 219 207 221 242 249 221
36 30 26 26 22 19 18 15 8 1 356 353 349 341 336 336 338 343 351 356 357 358 360 2 7 11 12 11 12 12 13 17 21 24 26 31 37 46 55 65 84 105 100 88 89 93 93 91 92 93 94 96 97 96 96 97 97 94 89 89 93 97 100 103 100 93 82 27 15 19 11 356 338 328 327 319 292 280 285 269 243 235 240 234 211
43 39 34 32 28 26 25 22 16 10 8 8 5 357 351 345 339 335 338 341 341 342 347 352 357 3 7 8 9 11 9 9 12 16 20 27 38 52 71 83 89 115 156 169 159 129 104 96 106 119 124 123 122 117 106 102 107 108 100 98 102 114 131 138 118 93 86 358 16 10 353 342 337 335 332 315 293 274 250 246 240 235 234 230 218
45 44 37 32 30 29 27 23 20 16 13 12 12 8 1 356 350 343 338 335 331 331 335 340 345 349 353 356 359 3 1 356 356 1 7 16 29 44 78 107 108 98 113 168 188 184 168 152 153 151 150 148 142 131 121 124 126 117 118 146 175 188 187 176 165 187 230 227 359 354 343 337 332 331 334 322 300 283 260 250 237 225 225 223 212
41 38 33 30 30 28 24 20 20 20 16 12 12 11 5 359 356 351 347 342 337 330 327 327 330 334 337 340 346 353 354 349 345 345 348 359 17 37 61 116 156 158 114 143 183 189 196 211 208 176 157 159 165 164 173 172 149 145 182 204 209 210 205 201 209 228 234 238 327 322 317 324 326 321 312 294 280 277 273 266 252 230 222 214 201
37 28 25 25 21 19 21 19 17 19 19 13 10 12 8 1 358 356 352 347 343 339 333 327 322 320 323 328 334 341 345 345 346 347 344 343 354 23 18 149 185 200 210 207 196 195 202 215 218 205 194 200 215 215 206 192 185 198 211 212 210 209 212 219 231 240 247 256 278 292 298 305 307 301 287 274 268 268 261 255 247 233 215 199 190
24 15 15 15 7 4 10 11 6 10 14 9 4 6 6 1 359 358 355 350 348 346 342 336 330 324 319 316 320 330 339 342 346 349 343 330 316 283 228 228 231 221 215 213 214 209 205 211 216 215 218 232 239 227 206 202 209 211 209 207 207 210 220 238 254 265 273 276 274 275 283 289 288 284 275 263 263 266 255 238 233 231 210 186 179